| time (UTC) | temp C | wind direction | speed KPH | gust KPH | rain 1hr cm | rain 24hr cm | rain mn cm | humidity % | barometer mb |
| 20260509185400 | 16 | 169 | 6.4 | 16.1 | 0.00 | 0.94 | 0.94 | 74 | 1402.4 |
| 20260509184854 | 16 | 185 | 4.8 | 14.5 | 0.00 | 0.94 | 0.94 | 79 | 1402.4 |
| 20260509184348 | 16 | 201 | 4.8 | 12.9 | 0.00 | 0.94 | 0.94 | 82 | 1402.4 |
| 20260509183842 | 15 | 202 | 4.8 | 14.5 | 0.00 | 0.94 | 0.94 | 82 | 1402.5 |
| 20260509182830 | 14 | 273 | 4.8 | 11.3 | 0.00 | 0.94 | 0.94 | 82 | 1402.6 |
| 20260509182324 | 14 | 321 | 4.8 | 11.3 | 0.00 | 0.94 | 0.94 | 83 | 1402.8 |
| 20260509181312 | 14 | 213 | 6.4 | 12.9 | 0.00 | 0.94 | 0.94 | 84 | 1402.6 |
| 20260509180806 | 14 | 261 | 4.8 | 11.3 | 0.00 | 0.94 | 0.94 | 85 | 1402.6 |
| 20260509180300 | 14 | 210 | 4.8 | 11.3 | 0.00 | 0.94 | 0.94 | 84 | 1402.6 |
| 20260509175757 | 13 | 209 | 3.2 | 8.0 | 0.00 | 0.94 | 0.94 | 86 | 1402.5 |
| 20260509175257 | 13 | 245 | 4.8 | 12.9 | 0.00 | 0.94 | 0.94 | 86 | 1402.5 |
| 20260509174756 | 13 | 229 | 6.4 | 16.1 | 0.00 | 0.94 | 0.94 | 84 | 1402.5 |
| 20260509174255 | 13 | 207 | 6.4 | 16.1 | 0.00 | 0.94 | 0.94 | 86 | 1402.5 |
| 20260509173754 | 13 | 225 | 4.8 | 12.9 | 0.00 | 0.94 | 0.94 | 86 | 1402.4 |
| 20260509173254 | 13 | 242 | 3.2 | 12.9 | 0.00 | 0.94 | 0.94 | 88 | 1402.2 |
| 20260509172755 | 13 | 195 | 4.8 | 14.5 | 0.00 | 0.94 | 0.94 | 89 | 1402.2 |
| 20260509172254 | 13 | 209 | 3.2 | 14.5 | 0.00 | 0.94 | 0.94 | 89 | 1402.2 |
| 20260509171755 | 13 | 178 | 3.2 | 11.3 | 0.03 | 0.94 | 0.94 | 91 | 1402.2 |
| 20260509171255 | 12 | 211 | 1.6 | 8.0 | 0.03 | 0.94 | 0.94 | 91 | 1402.2 |
| 20260509170755 | 12 | 188 | 1.6 | 8.0 | 0.05 | 0.94 | 0.94 | 91 | 1402.2 |
| 20260509170255 | 12 | 207 | 3.2 | 6.4 | 0.05 | 0.94 | 0.94 | 92 | 1402.4 |
| 20260509165755 | 12 | 207 | 3.2 | 6.4 | 0.05 | 0.94 | 0.94 | 92 | 1402.2 |
| 20260509165254 | 12 | 227 | 3.2 | 8.0 | 0.05 | 0.94 | 0.94 | 92 | 1402.1 |
| 20260509164753 | 12 | 215 | 1.6 | 8.0 | 0.05 | 0.94 | 0.94 | 92 | 1402.1 |
| 20260509164254 | 12 | 139 | 3.2 | 9.7 | 0.05 | 0.94 | 0.94 | 92 | 1402.0 |
| 20260509163752 | 12 | 148 | 3.2 | 9.7 | 0.05 | 0.94 | 0.94 | 92 | 1402.0 |
| 20260509163252 | 12 | 154 | 3.2 | 12.9 | 0.05 | 0.94 | 0.94 | 92 | 1402.1 |
| 20260509162752 | 12 | 192 | 4.8 | 12.9 | 0.05 | 0.94 | 0.94 | 92 | 1402.0 |
| 20260509162250 | 12 | 153 | 4.8 | 14.5 | 0.05 | 0.94 | 0.94 | 93 | 1402.0 |
| 20260509161750 | 12 | 135 | 3.2 | 14.5 | 0.03 | 0.91 | 0.91 | 93 | 1402.1 |
| 20260509161250 | 12 | 193 | 3.2 | 8.0 | 0.03 | 0.91 | 0.91 | 93 | 1402.2 |
| 20260509160750 | 12 | 190 | 3.2 | 12.9 | 0.00 | 0.89 | 0.89 | 93 | 1402.2 |
| 20260509160251 | 12 | 217 | 3.2 | 12.9 | 0.00 | 0.89 | 0.89 | 93 | 1402.4 |
| 20260509155250 | 12 | 146 | 6.4 | 17.7 | 0.03 | 0.89 | 0.89 | 93 | 1402.2 |
| 20260509154750 | 12 | 157 | 6.4 | 17.7 | 0.03 | 0.89 | 0.89 | 94 | 1402.2 |
| 20260509154250 | 12 | 144 | 3.2 | 9.7 | 0.03 | 0.89 | 0.89 | 94 | 1402.4 |
| 20260509153751 | 12 | 163 | 3.2 | 12.9 | 0.05 | 0.89 | 0.89 | 94 | 1402.4 |
| 20260509153251 | 12 | 198 | 3.2 | 12.9 | 0.05 | 0.89 | 0.89 | 94 | 1402.5 |
| 20260509152752 | 11 | 203 | 3.2 | 11.3 | 0.05 | 0.89 | 0.89 | 94 | 1402.8 |
| 20260509152252 | 11 | 148 | 3.2 | 11.3 | 0.05 | 0.89 | 0.89 | 94 | 1402.8 |
| 20260509151247 | 11 | 148 | 3.2 | 11.3 | 0.08 | 0.89 | 0.89 | 94 | 1402.9 |
| 20260509150748 | 11 | 163 | 1.6 | 11.3 | 0.08 | 0.89 | 0.89 | 94 | 1402.9 |
| 20260509150247 | 11 | 162 | 1.6 | 8.0 | 0.08 | 0.89 | 0.89 | 94 | 1402.9 |
| 20260509145748 | 11 | 156 | 3.2 | 8.0 | 0.08 | 0.86 | 0.86 | 94 | 1402.9 |
| 20260509144748 | 11 | 139 | 3.2 | 9.7 | 0.08 | 0.86 | 0.86 | 94 | 1402.9 |
| 20260509144246 | 11 | 211 | 3.2 | 9.7 | 0.10 | 0.86 | 0.86 | 94 | 1402.9 |
| 20260509143747 | 11 | 174 | 3.2 | 11.3 | 0.08 | 0.84 | 0.84 | 94 | 1402.8 |
| 20260509143243 | 11 | 178 | 3.2 | 11.3 | 0.10 | 0.84 | 0.84 | 94 | 1402.9 |
| 20260509142742 | 11 | 198 | 3.2 | 8.0 | 0.10 | 0.84 | 0.84 | 94 | 1402.9 |
| 20260509141742 | 11 | 162 | 3.2 | 11.3 | 0.13 | 0.84 | 0.84 | 94 | 1402.9 |
| 20260509140242 | 11 | 149 | 3.2 | 9.7 | 0.15 | 0.81 | 0.81 | 94 | 1403.0 |
| 20260509135744 | 11 | 167 | 3.2 | 11.3 | 0.15 | 0.79 | 0.79 | 94 | 1403.2 |
| 20260509135244 | 11 | 193 | 3.2 | 11.3 | 0.15 | 0.79 | 0.79 | 94 | 1403.2 |
| 20260509134241 | 11 | 149 | 3.2 | 11.3 | 0.18 | 0.76 | 0.76 | 94 | 1403.0 |
| 20260509133240 | 11 | 155 | 4.8 | 17.7 | 0.20 | 0.74 | 0.74 | 94 | 1403.2 |
| 20260509132736 | 11 | 218 | 4.8 | 17.7 | 0.23 | 0.74 | 0.74 | 94 | 1403.3 |
| 20260509132238 | 11 | 181 | 3.2 | 14.5 | 0.25 | 0.74 | 0.74 | 95 | 1403.3 |
| 20260509131237 | 11 | 155 | 3.2 | 8.0 | 0.25 | 0.69 | 0.69 | 94 | 1403.4 |
| 20260509130738 | 11 | 155 | 3.2 | 8.0 | 0.28 | 0.69 | 0.69 | 94 | 1403.4 |
| 20260509130234 | 11 | 147 | 3.2 | 8.0 | 0.25 | 0.66 | 0.66 | 94 | 1403.4 |
| 20260509125733 | 10 | 146 | 1.6 | 8.0 | 0.25 | 0.64 | 0.64 | 94 | 1403.6 |
| 20260509124232 | 10 | 170 | 1.6 | 11.3 | 0.25 | 0.58 | 0.58 | 94 | 1403.6 |
| 20260509123732 | 10 | 161 | 1.6 | 6.4 | 0.23 | 0.56 | 0.56 | 94 | 1403.6 |
| 20260509123232 | 10 | 191 | 1.6 | 9.7 | 0.20 | 0.53 | 0.53 | 94 | 1403.6 |
| 20260509122733 | 10 | 173 | 1.6 | 9.7 | 0.18 | 0.51 | 0.51 | 94 | 1403.6 |
| 20260509122227 | 10 | 208 | 1.6 | 11.3 | 0.15 | 0.48 | 0.48 | 94 | 1403.6 |
| 20260509121215 | 10 | 154 | 3.2 | 11.3 | 0.10 | 0.43 | 0.43 | 94 | 1403.4 |
| 20260509120203 | 10 | 203 | 1.6 | 9.7 | 0.08 | 0.38 | 0.38 | 94 | 1403.6 |
| 20260509115657 | 10 | 190 | 3.2 | 9.7 | 0.08 | 0.38 | 0.38 | 94 | 1403.4 |
| 20260509115151 | 10 | 173 | 1.6 | 8.0 | 0.08 | 0.36 | 0.36 | 94 | 1403.6 |
| 20260509114645 | 10 | 180 | 0.0 | 4.8 | 0.08 | 0.36 | 0.36 | 94 | 1403.6 |
| 20260509113632 | 10 | 160 | 1.6 | 3.2 | 0.08 | 0.33 | 0.33 | 94 | 1403.4 |
| 20260509112621 | 10 | 146 | 0.0 | 3.2 | 0.10 | 0.33 | 0.33 | 94 | 1403.3 |
| 20260509112115 | 10 | 151 | 0.0 | 1.6 | 0.10 | 0.33 | 0.33 | 94 | 1403.3 |
| 20260509111609 | 10 | 152 | 0.0 | 3.2 | 0.13 | 0.33 | 0.33 | 94 | 1403.3 |
| 20260509111103 | 10 | 150 | 0.0 | 4.8 | 0.13 | 0.33 | 0.33 | 94 | 1403.3 |
| 20260509110557 | 10 | 130 | 0.0 | 4.8 | 0.13 | 0.30 | 0.30 | 94 | 1403.2 |
| 20260509105545 | 10 | 142 | 1.6 | 6.4 | 0.13 | 0.30 | 0.30 | 93 | 1403.3 |
| 20260509104540 | 10 | 128 | 1.6 | 6.4 | 0.10 | 0.28 | 0.28 | 93 | 1403.3 |
| 20260509104036 | 10 | 162 | 1.6 | 4.8 | 0.13 | 0.28 | 0.28 | 93 | 1403.3 |
| 20260509103535 | 10 | 131 | 1.6 | 6.4 | 0.10 | 0.25 | 0.25 | 93 | 1403.4 |
| 20260509103032 | 10 | 134 | 1.6 | 6.4 | 0.10 | 0.23 | 0.25 | 93 | 1403.3 |
| 20260509102532 | 10 | 140 | 1.6 | 4.8 | 0.10 | 0.23 | 0.23 | 93 | 1403.4 |
| 20260509101531 | 10 | 146 | 0.0 | 3.2 | 0.08 | 0.20 | 0.20 | 92 | 1403.4 |
| 20260509101030 | 10 | 144 | 0.0 | 3.2 | 0.10 | 0.20 | 0.20 | 92 | 1403.4 |
| 20260509100529 | 10 | 192 | 1.6 | 6.4 | 0.10 | 0.18 | 0.18 | 92 | 1403.6 |
| 20260509100028 | 10 | 159 | 3.2 | 9.7 | 0.10 | 0.18 | 0.18 | 92 | 1403.4 |
| 20260509095528 | 10 | 150 | 4.8 | 11.3 | 0.13 | 0.18 | 0.18 | 91 | 1403.4 |
| 20260509095029 | 10 | 134 | 3.2 | 11.3 | 0.15 | 0.18 | 0.18 | 91 | 1403.4 |
| 20260509094029 | 10 | 147 | 1.6 | 9.7 | 0.15 | 0.15 | 0.15 | 90 | 1403.7 |
| 20260509093527 | 10 | 161 | 1.6 | 9.7 | 0.15 | 0.15 | 0.15 | 90 | 1403.8 |
| 20260509093028 | 11 | 153 | 3.2 | 11.3 | 0.13 | 0.13 | 0.13 | 89 | 1404.0 |
| 20260509092528 | 11 | 188 | 3.2 | 11.3 | 0.13 | 0.13 | 0.13 | 89 | 1404.0 |
| 20260509091522 | 11 | 227 | 4.8 | 12.9 | 0.13 | 0.13 | 0.13 | 87 | 1404.1 |
| 20260509091016 | 11 | 225 | 4.8 | 17.7 | 0.10 | 0.10 | 0.10 | 86 | 1404.1 |
| 20260509090511 | 11 | 206 | 6.4 | 17.7 | 0.08 | 0.08 | 0.08 | 86 | 1404.1 |
| 20260509090005 | 11 | 196 | 6.4 | 16.1 | 0.08 | 0.08 | 0.08 | 85 | 1404.1 |
| 20260509085459 | 11 | 253 | 9.7 | 20.9 | 0.05 | 0.05 | 0.05 | 84 | 1404.1 |
| 20260509084953 | 12 | 236 | 12.9 | 32.2 | 0.03 | 0.03 | 0.03 | 82 | 1404.1 |
| 20260509084447 | 12 | 304 | 16.1 | 32.2 | 0.03 | 0.03 | 0.03 | 81 | 1404.0 |
| 20260509083435 | 10 | 262 | 6.4 | 27.4 | 0.00 | 0.00 | 0.00 | 90 | 1403.7 |
| 20260509082929 | 10 | 235 | 0.0 | 11.3 | 0.00 | 0.00 | 0.00 | 93 | 1403.4 |
| 20260509081411 | 9 | 322 | 0.0 | 3.2 | 0.00 | 0.00 | 0.00 | 93 | 1403.2 |
| 20260509080905 | 9 | 59 | 0.0 | 3.2 | 0.00 | 0.00 | 0.00 | 93 | 1402.8 |
| 20260509075853 | 9 | 59 | 0.0 | 3.2 | 0.00 | 0.00 | 0.00 | 92 | 1402.4 |
| 20260509075347 | 9 | 71 | 0.0 | 3.2 | 0.00 | 0.00 | 0.00 | 92 | 1402.2 |
| 20260509074841 | 9 | 80 | 1.6 | 3.2 | 0.00 | 0.00 | 0.00 | 92 | 1402.2 |
| 20260509074334 | 9 | 304 | 0.0 | 3.2 | 0.00 | 0.00 | 0.00 | 92 | 1402.2 |
| 20260509073829 | 9 | 331 | 0.0 | 0.0 | 0.00 | 0.00 | 0.00 | 92 | 1402.1 |
| 20260509072817 | 9 | 331 | 0.0 | 0.0 | 0.00 | 0.00 | 0.00 | 92 | 1402.0 |
| 20260509071805 | 9 | 331 | 0.0 | 0.0 | 0.00 | 0.00 | 0.00 | 91 | 1401.7 |
| 20260509071258 | 9 | 331 | 0.0 | 0.0 | 0.00 | 0.00 | 0.00 | 91 | 1401.7 |
| 20260509070753 | 9 | 331 | 0.0 | 0.0 | 0.00 | 0.00 | 0.00 | 91 | 1401.7 |
| 20260509065744 | 9 | 331 | 0.0 | 0.0 | 0.00 | 0.00 | 0.00 | 91 | 1401.7 |
| 20260509064741 | 9 | 331 | 0.0 | 0.0 | 0.00 | 0.00 | 0.00 | 91 | 1401.8 |
| 20260509064242 | 10 | 331 | 0.0 | 0.0 | 0.00 | 0.00 | 0.00 | 91 | 1401.8 |
| 20260509062738 | 10 | 331 | 1.6 | 4.8 | 0.00 | 0.00 | 0.00 | 91 | 1402.1 |
| 20260509062238 | 10 | 331 | 1.6 | 4.8 | 0.00 | 0.00 | 0.00 | 91 | 1402.2 |
| 20260509061235 | 10 | 342 | 0.0 | 3.2 | 0.00 | 0.00 | 0.00 | 90 | 1402.5 |
| 20260509055736 | 10 | 345 | 0.0 | 4.8 | 0.00 | 0.00 | 0.00 | 91 | 1403.0 |
| 20260509055237 | 10 | 344 | 0.0 | 4.8 | 0.00 | 0.00 | 0.00 | 91 | 1403.2 |
| 20260509054737 | 10 | 349 | 0.0 | 0.0 | 0.00 | 0.00 | 0.00 | 91 | 1403.2 |
| 20260509054236 | 10 | 349 | 0.0 | 0.0 | 0.00 | 0.00 | 0.00 | 91 | 1403.4 |
| 20260509053736 | 10 | 349 | 0.0 | 0.0 | 0.00 | 0.00 | 0.00 | 91 | 1403.4 |
| 20260509053236 | 10 | 349 | 0.0 | 0.0 | 0.00 | 0.00 | 0.00 | 90 | 1403.6 |
| 20260509052735 | 10 | 349 | 0.0 | 0.0 | 0.00 | 0.00 | 0.00 | 90 | 1403.7 |
| 20260509052236 | 10 | 349 | 0.0 | 0.0 | 0.00 | 0.00 | 0.00 | 90 | 1403.7 |
| 20260509051736 | 10 | 349 | 0.0 | 0.0 | 0.00 | 0.00 | 0.00 | 90 | 1403.7 |
| 20260509051235 | 10 | 349 | 0.0 | 0.0 | 0.00 | 0.00 | 0.00 | 89 | 1403.8 |
| 20260509050736 | 10 | 349 | 0.0 | 0.0 | 0.00 | 0.00 | 0.00 | 89 | 1404.0 |
| 20260509050235 | 10 | 349 | 0.0 | 0.0 | 0.00 | 0.00 | 0.00 | 89 | 1404.0 |
| 20260509045737 | 10 | 349 | 0.0 | 0.0 | 0.00 | 0.00 | 0.00 | 89 | 1404.0 |
| 20260509045235 | 10 | 349 | 0.0 | 1.6 | 0.00 | 0.00 | 0.00 | 89 | 1404.1 |
| 20260509044736 | 10 | 349 | 0.0 | 3.2 | 0.00 | 0.00 | 0.00 | 89 | 1404.1 |
| 20260509043737 | 10 | 335 | 0.0 | 0.0 | 0.00 | 0.00 | 0.00 | 89 | 1404.1 |
| 20260509043234 | 10 | 335 | 1.6 | 4.8 | 0.00 | 0.00 | 0.00 | 89 | 1404.1 |
| 20260509042734 | 10 | 335 | 1.6 | 4.8 | 0.00 | 0.00 | 0.00 | 89 | 1404.2 |
| 20260509042228 | 10 | 342 | 0.0 | 3.2 | 0.00 | 0.00 | 0.00 | 88 | 1404.2 |
| 20260509041722 | 10 | 57 | 0.0 | 0.0 | 0.00 | 0.00 | 0.00 | 88 | 1404.4 |
| 20260509041219 | 10 | 57 | 0.0 | 0.0 | 0.00 | 0.00 | 0.00 | 88 | 1404.4 |
| 20260509040719 | 10 | 57 | 0.0 | 0.0 | 0.00 | 0.00 | 0.00 | 88 | 1404.5 |
| 20260509040219 | 10 | 57 | 0.0 | 0.0 | 0.00 | 0.00 | 0.00 | 88 | 1404.5 |
| 20260509035717 | 10 | 57 | 0.0 | 0.0 | 0.00 | 0.00 | 0.00 | 87 | 1404.7 |
| 20260509035214 | 10 | 57 | 0.0 | 1.6 | 0.00 | 0.00 | 0.00 | 88 | 1404.8 |
| 20260509034209 | 11 | 77 | 1.6 | 4.8 | 0.00 | 0.00 | 0.00 | 88 | 1404.7 |
| 20260509033707 | 11 | 0 | 1.6 | 4.8 | 0.00 | 0.00 | 0.00 | 87 | 1404.5 |
| 20260509033208 | 11 | 330 | 1.6 | 4.8 | 0.00 | 0.00 | 0.00 | 87 | 1404.5 |
| 20260509032208 | 11 | 34 | 1.6 | 6.4 | 0.00 | 0.00 | 0.00 | 87 | 1404.8 |
| 20260509031708 | 11 | 22 | 1.6 | 6.4 | 0.00 | 0.00 | 0.00 | 87 | 1404.9 |
| 20260509031208 | 11 | 27 | 1.6 | 4.8 | 0.00 | 0.00 | 0.00 | 88 | 1405.1 |
| 20260509030206 | 10 | 46 | 1.6 | 4.8 | 0.00 | 0.00 | 0.00 | 88 | 1405.2 |
| 20260509025706 | 10 | 34 | 1.6 | 4.8 | 0.00 | 0.00 | 0.00 | 88 | 1405.2 |
| 20260509025206 | 10 | 76 | 1.6 | 4.8 | 0.00 | 0.00 | 0.00 | 88 | 1405.2 |
| 20260509024706 | 10 | 65 | 0.0 | 3.2 | 0.00 | 0.00 | 0.00 | 88 | 1405.3 |
| 20260509023700 | 11 | 355 | 0.0 | 3.2 | 0.00 | 0.00 | 0.00 | 88 | 1405.3 |
| 20260509022648 | 11 | 12 | 0.0 | 3.2 | 0.00 | 0.00 | 0.00 | 87 | 1405.1 |
| 20260509021636 | 11 | 344 | 1.6 | 6.4 | 0.00 | 0.00 | 0.00 | 87 | 1404.9 |
| 20260509021129 | 11 | 327 | 0.0 | 6.4 | 0.00 | 0.00 | 0.00 | 86 | 1404.8 |
| 20260509020624 | 11 | 5 | 0.0 | 0.0 | 0.00 | 0.00 | 0.00 | 86 | 1404.8 |
| 20260509020118 | 11 | 5 | 0.0 | 3.2 | 0.00 | 0.00 | 0.00 | 85 | 1404.8 |
| 20260509015106 | 11 | 9 | 0.0 | 1.6 | 0.00 | 0.00 | 0.00 | 84 | 1404.5 |
| 20260509014601 | 11 | 9 | 0.0 | 3.2 | 0.00 | 0.00 | 0.00 | 83 | 1404.4 |
| 20260509014053 | 11 | 9 | 1.6 | 4.8 | 0.00 | 0.00 | 0.00 | 82 | 1404.5 |
| 20260509013548 | 11 | 345 | 0.0 | 4.8 | 0.00 | 0.00 | 0.00 | 83 | 1404.5 |
| 20260509013042 | 11 | 339 | 0.0 | 1.6 | 0.00 | 0.00 | 0.00 | 81 | 1404.2 |
| 20260509012535 | 11 | 339 | 0.0 | 0.0 | 0.00 | 0.00 | 0.00 | 81 | 1404.1 |
| 20260509011524 | 11 | 339 | 0.0 | 3.2 | 0.00 | 0.00 | 0.00 | 80 | 1404.1 |
| 20260509011018 | 11 | 339 | 0.0 | 3.2 | 0.00 | 0.00 | 0.00 | 80 | 1404.0 |
| 20260509010512 | 11 | 339 | 0.0 | 4.8 | 0.00 | 0.00 | 0.00 | 80 | 1404.0 |
| 20260509010006 | 11 | 339 | 0.0 | 4.8 | 0.00 | 0.00 | 0.00 | 79 | 1403.8 |
| 20260509005459 | 12 | 325 | 0.0 | 1.6 | 0.00 | 0.00 | 0.00 | 77 | 1403.8 |
| 20260509004954 | 12 | 46 | 0.0 | 0.0 | 0.00 | 0.00 | 0.00 | 76 | 1403.8 |
| 20260509004448 | 12 | 46 | 0.0 | 0.0 | 0.00 | 0.00 | 0.00 | 75 | 1403.8 |
| 20260509003942 | 12 | 46 | 0.0 | 0.0 | 0.00 | 0.00 | 0.00 | 74 | 1403.8 |
| 20260509003436 | 12 | 46 | 0.0 | 0.0 | 0.00 | 0.00 | 0.00 | 74 | 1403.8 |
| 20260509002930 | 12 | 46 | 0.0 | 0.0 | 0.00 | 0.00 | 0.00 | 73 | 1404.1 |
| 20260509002424 | 13 | 46 | 0.0 | 4.8 | 0.00 | 0.00 | 0.00 | 72 | 1404.0 |
| 20260509001918 | 13 | 27 | 1.6 | 4.8 | 0.00 | 0.00 | 0.00 | 68 | 1403.8 |
| 20260509001412 | 13 | 24 | 1.6 | 4.8 | 0.00 | 0.00 | 0.00 | 68 | 1404.0 |
| 20260509000359 | 13 | 42 | 3.2 | 6.4 | 0.00 | 0.00 | 0.00 | 66 | 1404.0 |
| 20260508235854 | 13 | 31 | 1.6 | 4.8 | 0.00 | 0.00 | 0.00 | 66 | 1403.8 |
| 20260508235348 | 13 | 344 | 1.6 | 4.8 | 0.00 | 0.00 | 0.00 | 66 | 1403.8 |
| 20260508234848 | 13 | 36 | 1.6 | 4.8 | 0.00 | 0.00 | 0.00 | 65 | 1404.0 |
| 20260508234345 | 13 | 5 | 1.6 | 8.0 | 0.00 | 0.00 | 0.00 | 65 | 1404.0 |
| 20260508233343 | 13 | 33 | 4.8 | 8.0 | 0.00 | 0.00 | 0.00 | 65 | 1403.7 |
| 20260508232844 | 14 | 27 | 3.2 | 8.0 | 0.00 | 0.00 | 0.00 | 65 | 1403.8 |
| 20260508232342 | 14 | 27 | 3.2 | 6.4 | 0.00 | 0.00 | 0.00 | 64 | 1404.0 |
| 20260508231842 | 14 | 22 | 1.6 | 6.4 | 0.00 | 0.00 | 0.00 | 65 | 1403.7 |
| 20260508231342 | 14 | 24 | 1.6 | 6.4 | 0.00 | 0.00 | 0.00 | 67 | 1403.7 |
| 20260508230840 | 15 | 27 | 1.6 | 6.4 | 0.00 | 0.00 | 0.00 | 62 | 1403.7 |
| 20260508230340 | 15 | 26 | 3.2 | 6.4 | 0.00 | 0.00 | 0.00 | 64 | 1403.7 |
| 20260508225840 | 15 | 10 | 3.2 | 6.4 | 0.00 | 0.00 | 0.00 | 62 | 1403.8 |
| 20260508225338 | 15 | 13 | 3.2 | 6.4 | 0.00 | 0.00 | 0.00 | 62 | 1403.8 |
| 20260508224837 | 15 | 24 | 3.2 | 8.0 | 0.00 | 0.00 | 0.00 | 60 | 1403.7 |
| 20260508224338 | 15 | 0 | 1.6 | 8.0 | 0.00 | 0.00 | 0.00 | 61 | 1403.7 |
| 20260508223837 | 15 | 22 | 0.0 | 4.8 | 0.00 | 0.00 | 0.00 | 63 | 1403.8 |
| 20260508223337 | 15 | 34 | 0.0 | 3.2 | 0.00 | 0.00 | 0.00 | 63 | 1403.7 |
| 20260508222836 | 15 | 32 | 0.0 | 3.2 | 0.00 | 0.00 | 0.00 | 64 | 1403.8 |
| 20260508222333 | 15 | 40 | 0.0 | 3.2 | 0.00 | 0.00 | 0.00 | 62 | 1403.7 |
| 20260508221834 | 15 | 47 | 0.0 | 3.2 | 0.00 | 0.00 | 0.00 | 62 | 1403.8 |
| 20260508220821 | 15 | 38 | 0.0 | 3.2 | 0.00 | 0.00 | 0.00 | 61 | 1404.0 |
| 20260508220315 | 15 | 28 | 0.0 | 3.2 | 0.00 | 0.00 | 0.00 | 60 | 1404.0 |
| 20260508215809 | 15 | 67 | 0.0 | 3.2 | 0.00 | 0.00 | 0.00 | 62 | 1404.1 |
| 20260508215306 | 15 | 90 | 1.6 | 4.8 | 0.00 | 0.00 | 0.00 | 58 | 1404.1 |
| 20260508214759 | 15 | 15 | 1.6 | 4.8 | 0.00 | 0.00 | 0.00 | 56 | 1404.2 |
| 20260508213759 | 15 | 129 | 3.2 | 6.4 | 0.00 | 0.00 | 0.00 | 63 | 1404.1 |
| 20260508213300 | 15 | 105 | 1.6 | 6.4 | 0.00 | 0.00 | 0.00 | 60 | 1404.4 |
| 20260508212759 | 15 | 118 | 1.6 | 6.4 | 0.00 | 0.00 | 0.00 | 63 | 1404.4 |
| 20260508212257 | 15 | 88 | 1.6 | 6.4 | 0.00 | 0.00 | 0.00 | 63 | 1404.7 |
| 20260508211758 | 14 | 66 | 0.0 | 3.2 | 0.00 | 0.00 | 0.00 | 62 | 1404.8 |
| 20260508210758 | 14 | 271 | 0.0 | 0.0 | 0.00 | 0.00 | 0.00 | 65 | 1405.1 |
| 20260508210257 | 14 | 271 | 0.0 | 0.0 | 0.00 | 0.00 | 0.00 | 70 | 1404.9 |
| 20260508205757 | 14 | 271 | 0.0 | 0.0 | 0.00 | 0.00 | 0.00 | 67 | 1404.9 |
| 20260508205254 | 14 | 271 | 0.0 | 0.0 | 0.00 | 0.00 | 0.00 | 67 | 1404.9 |
| 20260508204753 | 14 | 271 | 0.0 | 0.0 | 0.00 | 0.00 | 0.00 | 69 | 1405.1 |
| 20260508204253 | 14 | 271 | 0.0 | 0.0 | 0.00 | 0.00 | 0.00 | 76 | 1405.2 |
| 20260508203752 | 13 | 271 | 0.0 | 0.0 | 0.00 | 0.00 | 0.00 | 75 | 1405.3 |
| 20260508203252 | 13 | 271 | 0.0 | 0.0 | 0.00 | 0.00 | 0.00 | 64 | 1405.3 |
| 20260508202752 | 13 | 271 | 0.0 | 1.6 | 0.00 | 0.00 | 0.00 | 64 | 1405.6 |
| 20260508202253 | 13 | 271 | 0.0 | 1.6 | 0.00 | 0.00 | 0.00 | 64 | 1405.7 |
| 20260508201753 | 13 | 271 | 0.0 | 3.2 | 0.00 | 0.00 | 0.00 | 65 | 1405.9 |
| 20260508201254 | 13 | 247 | 1.6 | 4.8 | 0.00 | 0.00 | 0.00 | 63 | 1406.0 |
| 20260508200754 | 13 | 215 | 1.6 | 4.8 | 0.00 | 0.00 | 0.00 | 61 | 1406.0 |
| 20260508200252 | 13 | 286 | 3.2 | 9.7 | 0.00 | 0.00 | 0.00 | 60 | 1406.1 |
| 20260508195752 | 13 | 251 | 3.2 | 11.3 | 0.00 | 0.00 | 0.00 | 60 | 1406.3 |
| 20260508195253 | 14 | 238 | 4.8 | 11.3 | 0.00 | 0.00 | 0.00 | 60 | 1406.4 |
| 20260508194254 | 14 | 248 | 6.4 | 17.7 | 0.00 | 0.00 | 0.00 | 59 | 1406.5 |
| 20260508193752 | 14 | 244 | 6.4 | 17.7 | 0.00 | 0.00 | 0.00 | 57 | 1406.4 |
| 20260508193253 | 14 | 240 | 4.8 | 14.5 | 0.00 | 0.00 | 0.00 | 60 | 1406.5 |
| 20260508192752 | 14 | 232 | 4.8 | 14.5 | 0.00 | 0.00 | 0.00 | 57 | 1406.5 |
| 20260508192247 | 15 | 265 | 4.8 | 14.5 | 0.00 | 0.00 | 0.00 | 59 | 1406.7 |
| 20260508190229 | 15 | 290 | 8.0 | 16.1 | 0.00 | 0.00 | 0.00 | 58 | 1406.9 |